Location: Quedlinburg
(51.7921°N, 11.1414°E)
Time: 22:21:16
(UTC+02:00)

SEEDS - Pass Details

Date: 18 March 2026
Orbit: 470 x 477 km, 97.8° (Epoch: 21 April)

Event Time Altitude Azimuth Distance (km) Brightness Sun altitude
Rises 05:26:59 0° 18° (NNE) 2,560 ? -9.5°
Reaches altitude 10° 05:29:07 10° 24° (NNE) 1,673 ? -9.1°
Maximum altitude 05:32:36 48° 100° (E) 638 ? -8.6°
Drops below altitude 10° 05:36:03 10° 176° (S) 1,651 ? -8.1°
Sets 05:38:09 0° 182° (S) 2,522 ? -7.8°
